Weather in Freising

Germany     48°24′16″N   11°44′49″E
temp.,
°C
wind,
m/s
gust,
m/s
humid.,
%
clouds,
%
prec.,
mm/h
press.,
hPa
HPBL,
m
18 may, tue
tue1823:00+8wsw7159211 0.6 1013631
02:00+8wsw8159120 0.8 1014688
05:00+7wsw8159290 0.8 1014676
08:00+7wsw61195100 4.3 1016901
11:00+10w7983100 1.1 10161349
14:00+10w788170 1.6 1016763
17:00+10nw468299 0.8 1015740
20:00+9nw3686100 0.9 1015215
19 may, wed
wed1923:00+7wnw359457 0.1 1017125
02:00+5w3696100 0.2 1018129
05:00+4wsw379781 0.3 1019172
08:00+6w5995100 0.9 1019668
11:00+10wnw6782100 1.0 10181044
14:00+11wnw567688 3.3 10181176
17:00+13wnw46646 1.2 10161380
20:00+9w35805 2.1 101773
20 may, thu
thu2023:00+6wsw489546 0.3 1020167
02:00+7wsw4896100 0.4 1020361
05:00+6wsw61095100 1.2 1021524
08:00+6wsw5995100 3.3 1023507
11:00+9w578683 0.3 1023803
14:00+10w678183 1.9 1023988
17:00+11w677853 1.0 10231085
20:00+10wsw23875 1.9 102354
21 may, fri
fri2123:00+6sw229133 0.0 102421
02:00+5s3392100 0.0 102235
05:00+4sse339191 0.0 102145
08:00+7sse3684100 0.0 1019187
11:00+13sse3464100 0.0 1017479
14:00+16sse3555100 0.0 1014767
17:00+18se2353100 0.0 1011774
20:00+14se337487 0.0 100942
22 may, sat
sat2223:00+10n468470 0.0 100979
02:00+9nne239336 0.0 100644
05:00+9wsw3696100 0.0 1008121
08:00+8wsw71489100 2.8 1010581
11:00+10wsw7985100 0.3 10101200
14:00+11wsw6879100 2.0 10111100
17:00+12wsw5774100 1.1 1011933
20:00+9ssw61078100 3.0 1012197